OBJECT C, 61871

Orbit data source: Space-Track

You're viewing an Uncataloged Satellite

Recently launched and/or uncataloged satellites may have evolving metadata. Metadata may include but not limited to: Owner, Maufacturer, Bus, Motor, and Mission.

OBJECT C, 61871 is a satellite owned by Hangtian Hongtu (CN) in SSO that was launched on Sat, 09 Nov 2024 UTC via a CHANG ZHENG 2C launch vehicle from the Jiuquan Satellite Launch Center, China (JSC). Unknown objects in Earth's orbit typically refer to objects detected orbiting the Earth but have not yet been identified or cataloged. These objects could be anything from previously untracked satellites, spent rocket stages, debris from satellite collisions, or even natural meteoroids temporarily captured by Earth's gravity.

Loading next visibility...
Identifier
61871, 2024-203C
Orbit
SSO
Country
Flag of CNCN / PRC
Related business
Manufacturer
Yinhe
Mission
Operational Commercial Radar Imaging
Bus & Motor
PIESAT, Unknown motor
Mass
270 kg wet, 270 kg dry
Launch date (UTC)
2024-11-09 (1 year ago)
Launch vehicle
CHANG ZHENG 2C
Launch site
Jiuquan Satellite Launch Center, China (JSC)
Object type
Unknown
Shape & HBR
Box + 2 Pan, 2.0 m
Radar Cross Section
2.315 m², Large (>1 m²)

Expand to show TLE details & history
Last TLE update: 18 hours ago

TLE from 18 hours ago
0 OBJECT C
1 61871U 24203C   25348.37859372  .00011692  00000-0  51565-3 0  9994
2 61871  97.4491  54.2554 0011612 274.6147  85.3763 15.21880309 60720
Epoch: 2025-12-14T09:05Z
TLE epoch observation values (Epoch: 2025-12-14T09:05:10.497Z)
Latitude
0.00002°
Longitude
-165.33071°
Altitude
502.626 km
Speed
7.613 km/s
True Right ascension
03h 37m 01s
True Declination
0° 00' 00"
Sunlit
Object was in full shadow at epoch
Visualization orbit readout
Latitude
Unknown
Longitude
Unknown
Altitude
Unknown
Speed
Unknown
Apparent Right ascension
Unknown
Apparent Declination
Unknown
Sunlit
N/A
Visualization observer readout
Local Sidereal Time
02:04:20
Azimuth
Unknown
Elevation
Unknown
Doppler factor
Unknown
Orbital elements
Apogee altitude
505.118 km
Perigee altitude
489.151 km
Semi-major axis
6,875.271 km
Eccentricity
0.00116
Inclination
97.4491°
RAAN
54.2554°
Arg. of periapsis
274.6147°
True anomaly
85.50895°
Mean anomaly
85.3763°
Eccentric anomaly
85.44262°
Mean motion
3.80722 °/min
Orbital period
94.56 mins
BSTAR
0.00051565
Loading maneuver chart data...
Computing Atmospheric mass density...
Loading historical data...
Loading historical data...
Loading historical data...
Loading historical data...
Loading historical data...
Loading historical data...
Loading historical data...
Other satellites on launch #203 in the year 2024 (2024-11-09 UTC)

Documentation

Showing up to 5 results
|